This is the latest recevied weather packets stored in our database for station/object HS6PNA-2. If no packets are shown the sender has not sent any weather packets the latest 10 day(s).
| Time | Temp. | Humidity | Pressure | Rain* | Wind** | Luminosity | Snow |
|---|---|---|---|---|---|---|---|
| 1777777054 | 33.33° C | 52% | 1006 hPa | - | - | 0 W/m² | - |
| 1777776129 | 32.78° C | 51% | 1006 hPa | - | - | 0 W/m² | - |
| 1777775204 | 32.78° C | 51% | 1005 hPa | - | - | 0 W/m² | - |
| 1777774280 | 32.78° C | 52% | 1005 hPa | - | - | 0 W/m² | - |
| 1777773355 | 32.78° C | 51% | 1005 hPa | - | - | 0 W/m² | - |
| 1777772430 | 32.22° C | 53% | 1005 hPa | - | - | 0 W/m² | - |
| 1777771505 | 31.67° C | 53% | 1005 hPa | - | - | 0 W/m² | - |
| 1777770580 | 31.67° C | 51% | 1005 hPa | - | - | 0 W/m² | - |
| 1777769655 | 31.11° C | 49% | 1005 hPa | - | - | 0 W/m² | - |
| 1777768731 | 30.56° C | 47% | 1005 hPa | - | - | 0 W/m² | - |
| 1777767806 | 29.44° C | 47% | 1005 hPa | - | - | 0 W/m² | - |
| 1777767245 | 28.33° C | 46% | 1005 hPa | - | - | 0 W/m² | - |
| 1777766320 | 28.33° C | 46% | 1005 hPa | - | - | 0 W/m² | - |
| 1777765396 | 28.33° C | 47% | 1004 hPa | - | - | 0 W/m² | - |
| 1777764471 | 28.33° C | 48% | 1004 hPa | - | - | 0 W/m² | - |
| 1777763547 | 28.33° C | 49% | 1004 hPa | - | - | 0 W/m² | - |
| 1777762622 | 28.33° C | 51% | 1004 hPa | - | - | 0 W/m² | - |
| 1777761697 | 28.33° C | 46% | 1004 hPa | - | - | 0 W/m² | - |
| 1777760773 | 28.33° C | 46% | 1003 hPa | - | - | 0 W/m² | - |
| 1777759848 | 28.33° C | 46% | 1003 hPa | - | - | 0 W/m² | - |
| 1777758923 | 28.33° C | 46% | 1003 hPa | - | - | 0 W/m² | - |
| 1777757999 | 28.33° C | 45% | 1003 hPa | - | - | 0 W/m² | - |
| 1777757074 | 28.33° C | 46% | 1003 hPa | - | - | 0 W/m² | - |
| 1777756149 | 28.33° C | 45% | 1003 hPa | - | - | 0 W/m² | - |
| 1777755224 | 28.33° C | 46% | 1003 hPa | - | - | 0 W/m² | - |
* Rain since midnight (hover to see other rain measurements)
** Current wind speed in m/s (hover to see current wind gust speed)